| time (UTC) | temp F | wind direction | speed knots | gust knots | rain 1hr in | rain 24hr in | rain mn in | humidity % | barometer mb |
| 20260505152331 | 77 | 207 | 7.0 | 11.3 | 0.00 | 0.00 | 0.00 | 39 | 1011.8 |
| 20260505151831 | 77 | 173 | 6.1 | 8.7 | 0.00 | 0.00 | 0.00 | 41 | 1011.9 |
| 20260505151328 | 77 | 206 | 5.2 | 8.7 | 0.00 | 0.00 | 0.00 | 41 | 1012.0 |
| 20260505150825 | 77 | 190 | 4.3 | 9.6 | 0.00 | 0.00 | 0.00 | 41 | 1012.0 |
| 20260505150322 | 77 | 184 | 5.2 | 7.0 | 0.00 | 0.00 | 0.00 | 41 | 1011.8 |
| 20260505140246 | 75 | 180 | 4.3 | 6.1 | 0.00 | 0.00 | 0.00 | 42 | 1011.9 |
| 20260505130210 | 70 | 209 | 4.3 | 7.8 | 0.00 | 0.00 | 0.00 | 45 | 1012.3 |
| 20260505124700 | 69 | 75 | 0.0 | 1.7 | 0.00 | 0.00 | 0.00 | 46 | 1012.3 |
| 20260505124157 | 69 | 292 | 0.0 | 6.1 | 0.00 | 0.00 | 0.00 | 48 | 1012.3 |
| 20260505123653 | 69 | 169 | 0.9 | 2.6 | 0.00 | 0.00 | 0.00 | 47 | 1012.3 |
| 20260505123150 | 68 | 190 | 0.9 | 3.5 | 0.00 | 0.00 | 0.00 | 50 | 1012.3 |
| 20260505122646 | 67 | 215 | 3.5 | 3.5 | 0.00 | 0.00 | 0.00 | 51 | 1012.4 |
| 20260505122144 | 67 | 173 | 0.9 | 2.6 | 0.00 | 0.00 | 0.00 | 52 | 1012.5 |
| 20260505121640 | 66 | 177 | 2.6 | 2.6 | 0.00 | 0.00 | 0.00 | 51 | 1012.3 |
| 20260505121137 | 66 | 171 | 1.7 | 3.5 | 0.00 | 0.00 | 0.00 | 54 | 1012.5 |
| 20260505120633 | 66 | 217 | 1.7 | 3.5 | 0.00 | 0.00 | 0.00 | 53 | 1012.3 |
| 20260505120129 | 65 | 202 | 2.6 | 2.6 | 0.00 | 0.00 | 0.00 | 55 | 1012.4 |
| 20260505115623 | 65 | 173 | 0.9 | 1.7 | 0.00 | 0.00 | 0.00 | 55 | 1012.3 |
| 20260505115121 | 64 | 193 | 1.7 | 1.7 | 0.00 | 0.00 | 0.00 | 55 | 1012.3 |
| 20260505114618 | 63 | 189 | 1.7 | 1.7 | 0.00 | 0.00 | 0.00 | 56 | 1012.1 |
| 20260505114114 | 62 | 170 | 0.9 | 1.7 | 0.00 | 0.00 | 0.00 | 58 | 1012.2 |
| 20260505113611 | 62 | 181 | 0.9 | 2.6 | 0.00 | 0.00 | 0.00 | 58 | 1012.1 |
| 20260505113108 | 61 | 159 | 0.9 | 0.9 | 0.00 | 0.00 | 0.00 | 61 | 1012.1 |
| 20260505112604 | 62 | 161 | 0.9 | 2.6 | 0.00 | 0.00 | 0.00 | 59 | 1012.0 |
| 20260505112102 | 62 | 160 | 0.9 | 1.7 | 0.00 | 0.00 | 0.00 | 59 | 1011.8 |
| 20260505111555 | 61 | 159 | 0.0 | 1.7 | 0.00 | 0.00 | 0.00 | 60 | 1012.0 |
| 20260505111052 | 61 | 181 | 1.7 | 1.7 | 0.00 | 0.00 | 0.00 | 60 | 1011.8 |
| 20260505110548 | 60 | 199 | 3.5 | 3.5 | 0.00 | 0.00 | 0.00 | 60 | 1012.0 |
| 20260505102021 | 56 | 147 | 0.0 | 0.9 | 0.00 | 0.00 | 0.00 | 68 | 1011.4 |
| 20260505101519 | 56 | 133 | 0.0 | 0.0 | 0.00 | 0.00 | 0.00 | 68 | 1011.4 |
| 20260505101015 | 56 | 133 | 0.0 | 0.0 | 0.00 | 0.00 | 0.00 | 68 | 1011.0 |
| 20260505100513 | 57 | 132 | 0.0 | 0.0 | 0.00 | 0.00 | 0.00 | 67 | 1010.9 |
| 20260505100010 | 57 | 137 | 0.0 | 0.0 | 0.00 | 0.00 | 0.00 | 67 | 1011.0 |
| 20260505095505 | 58 | 145 | 0.0 | 0.0 | 0.00 | 0.00 | 0.00 | 63 | 1011.0 |
| 20260505095001 | 58 | 174 | 0.0 | 0.9 | 0.00 | 0.00 | 0.00 | 62 | 1011.0 |
| 20260505094458 | 59 | 180 | 0.9 | 0.9 | 0.00 | 0.00 | 0.00 | 62 | 1011.1 |
| 20260505093955 | 59 | 213 | 0.9 | 1.7 | 0.00 | 0.00 | 0.00 | 61 | 1010.9 |
| 20260505093451 | 59 | 167 | 0.9 | 1.7 | 0.00 | 0.00 | 0.00 | 61 | 1011.0 |
| 20260505092949 | 59 | 199 | 1.7 | 2.6 | 0.00 | 0.00 | 0.00 | 61 | 1011.0 |
| 20260505092446 | 59 | 217 | 1.7 | 3.5 | 0.00 | 0.00 | 0.00 | 62 | 1010.9 |
| 20260505091944 | 59 | 209 | 0.0 | 2.6 | 0.00 | 0.00 | 0.00 | 62 | 1011.0 |
| 20260505091441 | 58 | 263 | 2.6 | 5.2 | 0.00 | 0.00 | 0.00 | 62 | 1010.9 |
| 20260505090939 | 57 | 210 | 1.7 | 2.6 | 0.00 | 0.00 | 0.00 | 64 | 1011.0 |
| 20260505090437 | 57 | 164 | 0.9 | 1.7 | 0.00 | 0.00 | 0.00 | 65 | 1010.9 |
| 20260505085934 | 56 | 232 | 0.0 | 1.7 | 0.00 | 0.00 | 0.00 | 68 | 1011.0 |
| 20260505085432 | 56 | 131 | 0.0 | 0.9 | 0.00 | 0.00 | 0.00 | 69 | 1010.9 |
| 20260505084930 | 56 | 129 | 0.0 | 0.9 | 0.00 | 0.00 | 0.00 | 70 | 1011.0 |
| 20260505084428 | 55 | 128 | 0.0 | 0.9 | 0.00 | 0.00 | 0.00 | 71 | 1010.8 |
| 20260505083925 | 54 | 181 | 0.0 | 0.0 | 0.00 | 0.00 | 0.00 | 75 | 1010.7 |
| 20260505083423 | 55 | 181 | 0.0 | 0.0 | 0.00 | 0.00 | 0.00 | 76 | 1011.0 |
| 20260505082919 | 55 | 181 | 0.0 | 0.0 | 0.00 | 0.00 | 0.00 | 75 | 1010.8 |
| 20260505082415 | 54 | 181 | 0.0 | 0.0 | 0.00 | 0.00 | 0.00 | 76 | 1010.9 |
| 20260505081912 | 54 | 181 | 0.0 | 0.0 | 0.00 | 0.00 | 0.00 | 77 | 1011.1 |
| 20260505081409 | 54 | 181 | 0.0 | 0.0 | 0.00 | 0.00 | 0.00 | 78 | 1011.0 |
| 20260505080905 | 54 | 181 | 0.0 | 0.0 | 0.00 | 0.00 | 0.00 | 77 | 1011.0 |
| 20260505080401 | 54 | 181 | 0.0 | 0.0 | 0.00 | 0.00 | 0.00 | 76 | 1011.1 |
| 20260505075857 | 55 | 181 | 0.0 | 0.0 | 0.00 | 0.00 | 0.00 | 75 | 1010.9 |
| 20260505075354 | 55 | 181 | 0.0 | 0.0 | 0.00 | 0.00 | 0.00 | 75 | 1011.0 |
| 20260505074851 | 56 | 181 | 0.0 | 0.0 | 0.00 | 0.00 | 0.00 | 73 | 1011.0 |
| 20260505074348 | 56 | 181 | 0.0 | 0.0 | 0.00 | 0.00 | 0.00 | 73 | 1011.1 |
| 20260505073846 | 55 | 181 | 0.0 | 0.0 | 0.00 | 0.00 | 0.00 | 73 | 1011.1 |
| 20260505073343 | 56 | 181 | 0.0 | 0.0 | 0.00 | 0.00 | 0.00 | 72 | 1010.9 |
| 20260505072840 | 56 | 181 | 0.0 | 0.0 | 0.00 | 0.00 | 0.00 | 72 | 1011.0 |
| 20260505072336 | 56 | 181 | 0.0 | 0.0 | 0.00 | 0.00 | 0.00 | 71 | 1010.9 |
| 20260505071832 | 56 | 181 | 0.0 | 0.0 | 0.00 | 0.00 | 0.00 | 71 | 1010.9 |
| 20260505071329 | 57 | 181 | 0.9 | 0.9 | 0.00 | 0.00 | 0.00 | 70 | 1010.6 |
| 20260505070827 | 56 | 166 | 0.9 | 0.9 | 0.00 | 0.00 | 0.00 | 70 | 1010.9 |
| 20260505070323 | 55 | 165 | 0.9 | 1.7 | 0.00 | 0.00 | 0.00 | 71 | 1011.0 |
| 20260505065818 | 55 | 157 | 0.0 | 0.0 | 0.00 | 0.00 | 0.00 | 76 | 1011.0 |
| 20260505065315 | 55 | 157 | 0.0 | 0.9 | 0.00 | 0.00 | 0.00 | 76 | 1010.8 |
| 20260505064813 | 55 | 157 | 0.0 | 0.0 | 0.00 | 0.00 | 0.00 | 74 | 1010.8 |
| 20260505064309 | 56 | 157 | 0.0 | 0.0 | 0.00 | 0.00 | 0.00 | 73 | 1010.7 |
| 20260505063808 | 57 | 157 | 0.0 | 0.0 | 0.00 | 0.00 | 0.00 | 70 | 1010.9 |
| 20260505063304 | 57 | 158 | 0.0 | 0.0 | 0.00 | 0.00 | 0.00 | 68 | 1010.7 |
| 20260505062800 | 57 | 158 | 0.0 | 0.0 | 0.00 | 0.00 | 0.00 | 67 | 1010.7 |
| 20260505062258 | 58 | 158 | 0.0 | 0.0 | 0.00 | 0.00 | 0.00 | 66 | 1010.8 |
| 20260505061754 | 58 | 160 | 0.9 | 0.9 | 0.00 | 0.00 | 0.00 | 65 | 1010.9 |
| 20260505061252 | 58 | 161 | 0.0 | 0.0 | 0.00 | 0.00 | 0.00 | 67 | 1010.9 |
| 20260505060750 | 58 | 161 | 0.0 | 0.0 | 0.00 | 0.00 | 0.00 | 66 | 1011.0 |
| 20260505060247 | 58 | 168 | 1.7 | 1.7 | 0.00 | 0.00 | 0.00 | 66 | 1010.9 |
| 20260505055742 | 57 | 136 | 0.9 | 0.9 | 0.00 | 0.00 | 0.00 | 69 | 1010.7 |
| 20260505055238 | 57 | 134 | 0.0 | 0.9 | 0.00 | 0.00 | 0.00 | 71 | 1010.9 |
| 20260505054736 | 56 | 132 | 0.0 | 0.0 | 0.00 | 0.00 | 0.00 | 72 | 1010.8 |
| 20260505054233 | 56 | 132 | 0.0 | 0.0 | 0.00 | 0.00 | 0.00 | 73 | 1010.7 |
| 20260505053732 | 56 | 135 | 0.0 | 0.0 | 0.00 | 0.00 | 0.00 | 73 | 1010.9 |
| 20260505053227 | 56 | 135 | 0.0 | 0.0 | 0.00 | 0.00 | 0.00 | 74 | 1011.0 |
| 20260505052725 | 56 | 135 | 0.0 | 0.0 | 0.00 | 0.00 | 0.00 | 74 | 1011.0 |
| 20260505052222 | 56 | 135 | 0.0 | 0.0 | 0.00 | 0.00 | 0.00 | 74 | 1011.0 |
| 20260505051719 | 56 | 135 | 0.0 | 0.0 | 0.00 | 0.00 | 0.00 | 74 | 1011.1 |
| 20260505051217 | 56 | 135 | 0.0 | 0.0 | 0.00 | 0.00 | 0.00 | 74 | 1011.0 |
| 20260505050715 | 56 | 135 | 0.0 | 0.0 | 0.00 | 0.00 | 0.00 | 74 | 1011.0 |
| 20260505050213 | 56 | 135 | 0.0 | 0.0 | 0.00 | 0.00 | 0.00 | 73 | 1011.1 |
| 20260505041642 | 58 | 135 | 0.0 | 0.0 | 0.00 | 0.00 | 0.00 | 69 | 1011.0 |
| 20260505041140 | 58 | 135 | 0.0 | 0.0 | 0.00 | 0.00 | 0.00 | 69 | 1010.8 |
| 20260505040636 | 58 | 135 | 0.0 | 0.0 | 0.00 | 0.00 | 0.00 | 69 | 1010.8 |
| 20260505040134 | 58 | 135 | 0.0 | 0.0 | 0.00 | 0.00 | 0.00 | 68 | 1010.8 |
| 20260505035630 | 59 | 136 | 0.0 | 0.0 | 0.00 | 0.00 | 0.00 | 66 | 1010.7 |
| 20260505035126 | 59 | 138 | 0.9 | 0.9 | 0.00 | 0.00 | 0.00 | 66 | 1010.8 |
| 20260505034623 | 59 | 143 | 0.9 | 1.7 | 0.00 | 0.00 | 0.00 | 65 | 1010.8 |
| 20260505034120 | 59 | 151 | 0.0 | 0.9 | 0.00 | 0.00 | 0.00 | 65 | 1010.9 |
| 20260505033617 | 59 | 150 | 0.9 | 0.9 | 0.00 | 0.00 | 0.00 | 65 | 1010.7 |
| 20260505033115 | 59 | 134 | 0.0 | 0.9 | 0.00 | 0.00 | 0.00 | 65 | 1010.7 |
| 20260505032613 | 60 | 137 | 0.0 | 0.9 | 0.00 | 0.00 | 0.00 | 63 | 1010.9 |
| 20260505032109 | 60 | 129 | 0.9 | 0.9 | 0.00 | 0.00 | 0.00 | 63 | 1010.8 |
| 20260505031606 | 60 | 141 | 0.0 | 0.0 | 0.00 | 0.00 | 0.00 | 62 | 1010.7 |
| 20260505031102 | 60 | 134 | 0.9 | 0.9 | 0.00 | 0.00 | 0.00 | 61 | 1010.7 |
| 20260505030600 | 61 | 133 | 0.0 | 1.7 | 0.00 | 0.00 | 0.00 | 60 | 1010.7 |
| 20260505030055 | 62 | 147 | 2.6 | 2.6 | 0.00 | 0.00 | 0.00 | 59 | 1010.8 |
| 20260505025551 | 62 | 161 | 1.7 | 5.2 | 0.00 | 0.00 | 0.00 | 58 | 1010.7 |
| 20260505025050 | 62 | 193 | 3.5 | 7.0 | 0.00 | 0.00 | 0.00 | 58 | 1010.7 |
| 20260505024547 | 62 | 169 | 1.7 | 5.2 | 0.00 | 0.00 | 0.00 | 58 | 1010.6 |
| 20260505024044 | 62 | 175 | 1.7 | 2.6 | 0.00 | 0.00 | 0.00 | 58 | 1010.7 |
| 20260505023541 | 62 | 172 | 2.6 | 2.6 | 0.00 | 0.00 | 0.00 | 58 | 1010.7 |
| 20260505023039 | 62 | 173 | 2.6 | 3.5 | 0.00 | 0.00 | 0.00 | 58 | 1010.8 |
| 20260505022536 | 62 | 175 | 2.6 | 3.5 | 0.00 | 0.00 | 0.00 | 57 | 1010.8 |
| 20260505022033 | 62 | 189 | 2.6 | 2.6 | 0.00 | 0.00 | 0.00 | 58 | 1010.6 |
| 20260505021530 | 62 | 171 | 1.7 | 2.6 | 0.00 | 0.00 | 0.00 | 58 | 1010.7 |
| 20260505021027 | 62 | 184 | 2.6 | 2.6 | 0.00 | 0.00 | 0.00 | 57 | 1010.9 |
| 20260505020526 | 62 | 189 | 1.7 | 1.7 | 0.00 | 0.00 | 0.00 | 57 | 1010.7 |
| 20260505020024 | 62 | 181 | 1.7 | 2.6 | 0.00 | 0.00 | 0.00 | 57 | 1010.8 |
| 20260505015521 | 62 | 157 | 0.9 | 1.7 | 0.00 | 0.00 | 0.00 | 57 | 1010.7 |
| 20260505015018 | 61 | 183 | 1.7 | 1.7 | 0.00 | 0.00 | 0.00 | 57 | 1010.7 |
| 20260505014514 | 61 | 150 | 1.7 | 0.9 | 0.00 | 0.00 | 0.00 | 57 | 1010.6 |
| 20260505014012 | 61 | 161 | 0.9 | 1.7 | 0.00 | 0.00 | 0.00 | 57 | 1010.7 |
| 20260505013509 | 61 | 148 | 0.9 | 0.9 | 0.00 | 0.00 | 0.00 | 57 | 1010.4 |
| 20260505013006 | 62 | 147 | 0.0 | 0.0 | 0.00 | 0.00 | 0.00 | 56 | 1010.6 |
| 20260505012504 | 62 | 160 | 0.0 | 0.9 | 0.00 | 0.00 | 0.00 | 54 | 1010.3 |
| 20260505012001 | 62 | 150 | 0.9 | 2.6 | 0.00 | 0.00 | 0.00 | 53 | 1010.4 |
| 20260505011456 | 62 | 162 | 1.7 | 1.7 | 0.00 | 0.00 | 0.00 | 53 | 1010.3 |
| 20260505010954 | 62 | 170 | 0.9 | 1.7 | 0.00 | 0.00 | 0.00 | 53 | 1010.3 |
| 20260505010449 | 63 | 161 | 0.0 | 0.9 | 0.00 | 0.00 | 0.00 | 52 | 1010.2 |
| 20260505005945 | 63 | 162 | 0.0 | 0.9 | 0.00 | 0.00 | 0.00 | 52 | 1010.3 |
| 20260505005442 | 63 | 169 | 1.7 | 1.7 | 0.00 | 0.00 | 0.00 | 51 | 1010.3 |
| 20260505004940 | 64 | 162 | 0.9 | 1.7 | 0.00 | 0.00 | 0.00 | 51 | 1010.3 |
| 20260505004436 | 64 | 157 | 1.7 | 2.6 | 0.00 | 0.00 | 0.00 | 49 | 1010.3 |
| 20260505003933 | 64 | 159 | 0.0 | 2.6 | 0.00 | 0.00 | 0.00 | 48 | 1010.2 |
| 20260505003431 | 64 | 175 | 1.7 | 1.7 | 0.00 | 0.00 | 0.00 | 48 | 1010.2 |
| 20260505002927 | 64 | 164 | 1.7 | 2.6 | 0.00 | 0.00 | 0.00 | 47 | 1010.2 |
| 20260505002423 | 65 | 170 | 1.7 | 3.5 | 0.00 | 0.00 | 0.00 | 47 | 1010.1 |
| 20260505001922 | 65 | 149 | 2.6 | 3.5 | 0.00 | 0.00 | 0.00 | 45 | 1010.1 |
| 20260505001419 | 66 | 164 | 2.6 | 3.5 | 0.00 | 0.00 | 0.00 | 45 | 1010.1 |
| 20260505000916 | 66 | 178 | 2.6 | 7.0 | 0.00 | 0.00 | 0.00 | 43 | 1010.3 |
| 20260505000414 | 66 | 180 | 2.6 | 5.2 | 0.00 | 0.00 | 0.00 | 43 | 1010.1 |
| 20260504235910 | 66 | 198 | 5.2 | 7.0 | 0.00 | 0.00 | 0.00 | 42 | 1010.0 |
| 20260504235408 | 67 | 166 | 5.2 | 7.0 | 0.00 | 0.00 | 0.00 | 41 | 1010.1 |
| 20260504234903 | 67 | 161 | 5.2 | 8.7 | 0.00 | 0.00 | 0.00 | 41 | 1010.0 |
| 20260504234401 | 67 | 178 | 2.6 | 5.2 | 0.00 | 0.00 | 0.00 | 41 | 1010.2 |
| 20260504233857 | 68 | 175 | 4.3 | 5.2 | 0.00 | 0.00 | 0.00 | 40 | 1010.1 |
| 20260504233353 | 68 | 205 | 6.1 | 7.0 | 0.00 | 0.00 | 0.00 | 40 | 1010.2 |
| 20260504232850 | 68 | 203 | 6.1 | 7.8 | 0.00 | 0.00 | 0.00 | 40 | 1009.9 |
| 20260504232347 | 68 | 170 | 4.3 | 7.0 | 0.00 | 0.00 | 0.00 | 40 | 1010.1 |
| 20260504231844 | 69 | 192 | 7.0 | 9.6 | 0.00 | 0.00 | 0.00 | 39 | 1010.2 |
| 20260504231341 | 68 | 234 | 7.0 | 11.3 | 0.00 | 0.00 | 0.00 | 39 | 1010.1 |
| 20260504230837 | 68 | 177 | 5.2 | 7.0 | 0.00 | 0.00 | 0.00 | 40 | 1010.0 |
| 20260504230335 | 69 | 177 | 5.2 | 7.0 | 0.00 | 0.00 | 0.00 | 39 | 1010.0 |
| 20260504225833 | 69 | 166 | 2.6 | 7.0 | 0.00 | 0.00 | 0.00 | 40 | 1010.1 |
| 20260504225329 | 69 | 177 | 4.3 | 7.0 | 0.00 | 0.00 | 0.00 | 40 | 1010.0 |
| 20260504224827 | 69 | 187 | 5.2 | 9.6 | 0.00 | 0.00 | 0.00 | 39 | 1010.1 |
| 20260504224323 | 69 | 168 | 3.5 | 8.7 | 0.00 | 0.00 | 0.00 | 38 | 1010.1 |
| 20260504223820 | 69 | 170 | 3.5 | 8.7 | 0.00 | 0.00 | 0.00 | 39 | 1010.0 |
| 20260504223316 | 69 | 200 | 5.2 | 6.1 | 0.00 | 0.00 | 0.00 | 38 | 1010.0 |
| 20260504222813 | 70 | 186 | 7.0 | 8.7 | 0.00 | 0.00 | 0.00 | 37 | 1010.0 |
| 20260504222309 | 70 | 188 | 4.3 | 7.0 | 0.00 | 0.00 | 0.00 | 38 | 1010.0 |
| 20260504221808 | 70 | 176 | 4.3 | 8.7 | 0.00 | 0.00 | 0.00 | 38 | 1009.9 |
| 20260504221304 | 71 | 193 | 3.5 | 7.8 | 0.00 | 0.00 | 0.00 | 37 | 1009.9 |
| 20260504220801 | 71 | 169 | 3.5 | 8.7 | 0.00 | 0.00 | 0.00 | 38 | 1010.0 |
| 20260504220258 | 71 | 168 | 7.8 | 11.3 | 0.00 | 0.00 | 0.00 | 36 | 1009.8 |
| 20260504215755 | 71 | 147 | 7.8 | 9.6 | 0.00 | 0.00 | 0.00 | 36 | 1009.9 |
| 20260504215251 | 71 | 164 | 7.8 | 9.6 | 0.00 | 0.00 | 0.00 | 36 | 1009.9 |
| 20260504214747 | 71 | 211 | 4.3 | 7.8 | 0.00 | 0.00 | 0.00 | 35 | 1009.9 |
| 20260504214244 | 71 | 179 | 4.3 | 6.1 | 0.00 | 0.00 | 0.00 | 36 | 1010.0 |
| 20260504213741 | 72 | 197 | 6.1 | 8.7 | 0.00 | 0.00 | 0.00 | 35 | 1010.1 |
| 20260504213237 | 72 | 200 | 4.3 | 9.6 | 0.00 | 0.00 | 0.00 | 34 | 1009.9 |
| 20260504212734 | 72 | 178 | 7.0 | 13.0 | 0.00 | 0.00 | 0.00 | 34 | 1010.0 |
| 20260504212231 | 73 | 149 | 6.1 | 8.7 | 0.00 | 0.00 | 0.00 | 33 | 1009.9 |
| 20260504211729 | 73 | 156 | 10.4 | 13.9 | 0.00 | 0.00 | 0.00 | 33 | 1010.0 |
| 20260504211224 | 73 | 150 | 5.2 | 11.3 | 0.00 | 0.00 | 0.00 | 33 | 1009.9 |
| 20260504210722 | 73 | 176 | 4.3 | 11.3 | 0.00 | 0.00 | 0.00 | 33 | 1010.0 |
| 20260504210219 | 73 | 172 | 4.3 | 7.8 | 0.00 | 0.00 | 0.00 | 34 | 1010.1 |
| 20260504205716 | 73 | 203 | 5.2 | 8.7 | 0.00 | 0.00 | 0.00 | 34 | 1009.9 |
| 20260504205214 | 73 | 184 | 2.6 | 6.1 | 0.00 | 0.00 | 0.00 | 34 | 1010.0 |
| 20260504204712 | 73 | 189 | 5.2 | 9.6 | 0.00 | 0.00 | 0.00 | 34 | 1010.1 |
| 20260504204210 | 73 | 179 | 6.1 | 12.2 | 0.00 | 0.00 | 0.00 | 35 | 1010.3 |
| 20260504203709 | 74 | 194 | 5.2 | 7.0 | 0.00 | 0.00 | 0.00 | 34 | 1010.0 |
| 20260504203206 | 73 | 162 | 2.6 | 8.7 | 0.00 | 0.00 | 0.00 | 36 | 1010.1 |
| 20260504202706 | 73 | 159 | 7.8 | 11.3 | 0.00 | 0.00 | 0.00 | 33 | 1010.1 |
| 20260504202203 | 73 | 176 | 3.5 | 11.3 | 0.00 | 0.00 | 0.00 | 34 | 1010.3 |
| 20260504201700 | 73 | 175 | 2.6 | 7.8 | 0.00 | 0.00 | 0.00 | 36 | 1010.4 |
| 20260504201158 | 73 | 48 | 5.2 | 8.7 | 0.00 | 0.00 | 0.00 | 34 | 1010.3 |
| 20260504200655 | 74 | 156 | 1.7 | 9.6 | 0.00 | 0.00 | 0.00 | 34 | 1010.5 |
| 20260504200151 | 72 | 166 | 2.6 | 7.8 | 0.00 | 0.00 | 0.00 | 35 | 1010.6 |
| 20260504195647 | 73 | 178 | 4.3 | 7.8 | 0.00 | 0.00 | 0.00 | 33 | 1010.8 |
| 20260504195143 | 73 | 196 | 5.2 | 8.7 | 0.00 | 0.00 | 0.00 | 34 | 1010.9 |
| 20260504194640 | 73 | 170 | 3.5 | 7.0 | 0.00 | 0.00 | 0.00 | 33 | 1010.9 |
| 20260504194137 | 73 | 133 | 6.1 | 9.6 | 0.00 | 0.00 | 0.00 | 33 | 1010.8 |
| 20260504193633 | 73 | 183 | 7.0 | 8.7 | 0.00 | 0.00 | 0.00 | 33 | 1010.9 |
| 20260504193131 | 72 | 189 | 5.2 | 7.8 | 0.00 | 0.00 | 0.00 | 34 | 1011.0 |
| 20260504192629 | 72 | 207 | 4.3 | 7.0 | 0.00 | 0.00 | 0.00 | 36 | 1011.3 |
| 20260504192127 | 72 | 215 | 7.8 | 12.2 | 0.00 | 0.00 | 0.00 | 33 | 1011.4 |
| 20260504191625 | 72 | 164 | 7.0 | 9.6 | 0.00 | 0.00 | 0.00 | 33 | 1011.4 |
| 20260504191121 | 73 | 218 | 5.2 | 13.0 | 0.00 | 0.00 | 0.00 | 34 | 1011.3 |
| 20260504190617 | 73 | 179 | 4.3 | 12.2 | 0.00 | 0.00 | 0.00 | 34 | 1011.5 |
| 20260504190114 | 72 | 181 | 4.3 | 7.8 | 0.00 | 0.00 | 0.00 | 34 | 1011.5 |
| 20260504185610 | 73 | 192 | 5.2 | 7.8 | 0.00 | 0.00 | 0.00 | 35 | 1011.7 |
| 20260504185107 | 72 | 218 | 5.2 | 8.7 | 0.00 | 0.00 | 0.00 | 32 | 1011.7 |
| 20260504184603 | 73 | 234 | 5.2 | 11.3 | 0.00 | 0.00 | 0.00 | 32 | 1011.7 |
| 20260504184058 | 73 | 194 | 6.1 | 12.2 | 0.00 | 0.00 | 0.00 | 35 | 1011.7 |
| 20260504183555 | 72 | 229 | 5.2 | 7.8 | 0.00 | 0.00 | 0.00 | 34 | 1011.8 |
| 20260504183053 | 73 | 169 | 5.2 | 7.8 | 0.00 | 0.00 | 0.00 | 31 | 1011.7 |
| 20260504182550 | 73 | 204 | 5.2 | 12.2 | 0.00 | 0.00 | 0.00 | 34 | 1011.7 |
| 20260504182048 | 73 | 229 | 2.6 | 9.6 | 0.00 | 0.00 | 0.00 | 34 | 1011.9 |
| 20260504181544 | 72 | 181 | 5.2 | 7.0 | 0.00 | 0.00 | 0.00 | 32 | 1011.8 |
| 20260504181042 | 73 | 111 | 4.3 | 7.0 | 0.00 | 0.00 | 0.00 | 33 | 1011.9 |
| 20260504180541 | 72 | 229 | 5.2 | 7.8 | 0.00 | 0.00 | 0.00 | 34 | 1012.1 |
| 20260504180040 | 73 | 212 | 5.2 | 8.7 | 0.00 | 0.00 | 0.00 | 31 | 1012.0 |
| 20260504175537 | 74 | 170 | 3.5 | 3.5 | 0.00 | 0.00 | 0.00 | 31 | 1012.1 |
| 20260504175033 | 73 | 188 | 2.6 | 3.5 | 0.00 | 0.00 | 0.00 | 31 | 1012.1 |
| 20260504174531 | 73 | 136 | 10.4 | 13.0 | 0.00 | 0.00 | 0.00 | 30 | 1012.1 |
| 20260504174028 | 73 | 250 | 0.9 | 3.5 | 0.00 | 0.00 | 0.00 | 30 | 1012.2 |
| 20260504173525 | 73 | 214 | 9.6 | 13.0 | 0.00 | 0.00 | 0.00 | 30 | 1012.5 |
| 20260504173022 | 72 | 165 | 5.2 | 8.7 | 0.00 | 0.00 | 0.00 | 32 | 1012.5 |
| 20260504172518 | 73 | 126 | 4.3 | 7.0 | 0.00 | 0.00 | 0.00 | 33 | 1012.6 |
| 20260504172015 | 73 | 214 | 4.3 | 5.2 | 0.00 | 0.00 | 0.00 | 30 | 1012.5 |
| 20260504171512 | 71 | 180 | 1.7 | 5.2 | 0.00 | 0.00 | 0.00 | 32 | 1012.6 |
| 20260504171009 | 72 | 210 | 3.5 | 9.6 | 0.00 | 0.00 | 0.00 | 31 | 1012.8 |
| 20260504170504 | 71 | 159 | 0.0 | 2.6 | 0.00 | 0.00 | 0.00 | 29 | 1012.7 |
| 20260504160425 | 70 | 132 | 2.6 | 6.1 | 0.00 | 0.00 | 0.00 | 33 | 1013.5 |